Weather History for KP68 - May, 2013

Change the Weather History Date:

Thursday, May 16, 2013

  Actual Average Record
Temperature  
Mean Temperature 55 °F 52 °F  
Max Temperature 67 °F 70 °F 84 °F (2007)
Min Temperature 43 °F 34 °F 12 °F (1968)
Degree Days  
Heating Degree Days 10 13  
Month to date heating degree days 186 242  
Since 1 July heating degree days 6600 7046  
Cooling Degree Days 0 0  
Month to date cooling degree days 1 0  
Year to date cooling degree days 1 0  
Growing Degree Days 4 (Base 50)    
Moisture  
Dew Point 26 °F    
Average Humidity 37    
Maximum Humidity 59    
Minimum Humidity 15    
Precipitation  
Precipitation 0.00 in 0.02 in 1.11 in (1987)
Month to date precipitation 0.20 0.40  
Year to date precipitation 2.68 3.90  
Sea Level Pressure  
Sea Level Pressure 29.76 in    
Wind  
Wind Speed 6 mph (WSW)    
Max Wind Speed 25 mph    
Max Gust Speed 34 mph    
T = Trace of Precipitation, MM = Missing Value Source: NWS Daily Summary

Daily Weather History Graph

Daily Weather History Graph

Search for Another Location

Airport or City:

Trip Planner

Search our weather history database for the weather conditions in past years. The results will help you decide how hot, cold, wet, or windy it might be!

Date:

Astronomy

May. 16, 2013 Rise Set
Actual Time 5:28 AM PDT 7:52 PM PDT
Civil Twilight 4:58 AM PDT 8:23 PM PDT
Nautical Twilight 4:20 AM PDT 9:01 PM PDT
Astronomical Twilight 3:38 AM PDT 9:43 PM PDT
Moon 11:05 AM PDT (5/16) 12:16 AM PDT (5/16)
Length of Visible Light 15h 25m
Length of Day
14h 24m
Waxing Crescent, 36% of the Moon is Illuminated
May 16
Waxing Crescent
May 17
First Quarter
May 24
Full
May 31
Last Quarter
Jun 8
New

Hourly Weather History & Observations

Time (PDT) Temp. Windchill Dew Point Humidity Pressure Visibility Wind Dir Wind Speed Gust Speed Precip Events Conditions
12:53 AM 60.1 °F - 16.0 °F 18% 29.76 in - WNW 5.8 mph - N/A   Unknown
1:53 AM 59.0 °F - 17.1 °F 20% 29.75 in - West 3.5 mph - N/A   Unknown
2:53 AM 57.0 °F - 18.0 °F 22% 29.75 in - WSW 3.5 mph - N/A   Unknown
3:53 AM 53.1 °F - 19.9 °F 27% 29.77 in - Calm Calm - N/A   Unknown
4:53 AM 54.0 °F - 19.9 °F 26% 29.77 in - SSW 5.8 mph - N/A   Unknown
5:53 AM 43.0 °F 40.3 °F 23.0 °F 45% 29.81 in - South 4.6 mph - N/A   Unknown
6:53 AM 45.0 °F - 27.0 °F 49% 29.82 in - Calm Calm - N/A   Unknown
7:53 AM 57.9 °F - 24.1 °F 27% 29.78 in - ESE 3.5 mph - N/A   Unknown
8:53 AM 62.1 °F - 24.1 °F 23% 29.76 in - East 4.6 mph - N/A   Unknown
9:53 AM 64.0 °F - 16.0 °F 16% 29.76 in - West 13.8 mph - N/A   Unknown
11:53 AM 63.0 °F - 19.9 °F 19% 29.77 in - West 17.3 mph 24.2 mph N/A   Unknown
12:53 PM 64.0 °F - 23.0 °F 21% 29.76 in - Variable 4.6 mph - N/A   Unknown
1:53 PM 64.0 °F - 23.0 °F 21% 29.74 in - Variable 5.8 mph - N/A   Unknown
2:53 PM 64.9 °F - 28.9 °F 26% 29.74 in - West 12.7 mph 21.9 mph N/A   Unknown
3:53 PM 60.1 °F - 33.1 °F 36% 29.75 in - SW 6.9 mph 24.2 mph N/A   Unknown
4:53 PM 61.0 °F - 34.0 °F 36% 29.72 in - SSE 8.1 mph - N/A   Unknown
5:53 PM 62.1 °F - 32.0 °F 32% 29.73 in - Variable 5.8 mph - N/A   Unknown
6:53 PM 60.1 °F - 32.0 °F 35% 29.75 in - SW 6.9 mph 21.9 mph N/A   Unknown
7:53 PM 57.9 °F - 33.1 °F 39% 29.72 in - NNW 8.1 mph - N/A   Unknown
8:53 PM 55.0 °F - 33.1 °F 43% 29.73 in - SSE 4.6 mph - N/A   Unknown
9:53 PM 54.0 °F - 33.1 °F 45% 29.75 in - Calm Calm - N/A   Unknown
10:53 PM 53.1 °F - 36.0 °F 52% 29.76 in - NNW 4.6 mph - N/A   Unknown
11:53 PM 51.1 °F - 37.9 °F 61% 29.77 in - Calm Calm - N/A   Unknown